千帆星座-150(QIANFAN-150)

导读

QIANFAN-150(NORAD编号69109)是中国G60千帆星座组网卫星之一,由上海微小卫星工程中心参与研制,属于宽带互联网卫星。该卫星于2026年5月12日在太原卫星发射中心,通过长征六号运载火箭(长征九号批次)发射入轨,服务于全球低轨宽带互联网组网建设,拓展天地一体化网络覆盖。目前QIANFAN-150已进入预定轨道,作为千帆星座大规模星座建设的重要组成部分,将为天地一体化信息传输提供通信支撑,助力中国低轨卫星互联网布局。

Basic Information
目录编号:
69109
目录名称:
QIANFAN-150
国际标识:
2026-108F
轨道中心:
EARTH
卫星名称:
千帆星座-150
卫星全名:
千帆星座-150(QIANFAN-150)
卫星状态:
在轨 (已飞行117 天)
发射日期:
2026-05-17 UTC
国别 :
中国 (CN)
星等 :
--
This satellite is enrolled in the Space Conjunction Data Service (SCDS) and the current flight risk assessment level is: No High Risk
Orbit Information
数据来源 国际轨道数据 AOE轨道数据
星历时间 2026-09-11T14:47:20+0800
10小时前
查看轨道信息
2026-09-07T04:00:00+0800
4天前
查看轨道信息
半长轴 7446.635km 7446.637km
偏心率 0.0002225 0.0002247
轨道倾角 89.019° 89.018°
近地点辐角 109.776° 113.440°
升交点赤经 13.417° 13.859°
平近点角 250.363° 218.448°
近地点 1066.841km 1066.826km
远地点 1070.155km 1070.174km
周期 106.586分钟 106.586分钟
每日圈数 13.51023 13.510223
Detailed Information
卫星平台:
150
覆盖范围:
全球
运营商:
上海垣信卫星科技有限公司
运营商所在国:
中国
使用方式:
暂无
Satellite Introduction
千帆星座,也被称为“G60星链”计划,是中国版“星链”的重要组成部分,旨在打造一个由1.4万多颗低轨宽频多媒体卫星构成的庞大星座。千帆星座计划由上海垣信卫星科技有限公司负责实施,于2023年启动建设。该项目是我国第二个低轨卫星大星座,旨在通过构建庞大的卫星网络,为全球用户提供高质量的通信和宽带互联网服务。
2D Orbit Map
3D Orbit Map
Orbit Altitude Analysis Chart
Orbit Inclination Analysis Chart
Orbit Comprehensive Analysis Chart
View Comprehensive Chart
Conjunction Data List
Event ID Objects TCA Miss Dist (km) Collision Risk Probability Collision Risk Index (CRI) Action
CDM_260913-095704-213406-910922
2026-09-13T
09:57:11+0000
2.917 km
极远距离
1.330769E-6 低风险 0.37
Miss Distance Evolution Trend with All Objects
Collision Probability Evolution Trend with All Objects